• In Latvia
  • List of Countries
  • For 7 days
  • Water Temperature
  • Satellite Maps
  • Weather Map
  • Weather Widgets
  • user-avatar
    Login

    Hourly Weather Novo-Petrovskoe

    Today, 23 May, Wednesday

    Time Temperature Precipitation Wind Pressure Humidity
    00:00 +10°C° 0 mm 2 mps 746 mmHg 97%
    01:00 +10°C° 0 mm 1 mps 746 mmHg 97%
    02:00 +10°C° 0 mm 1 mps 746 mmHg 98%
    03:00 +10°C° 0 mm 1 mps 746 mmHg 97%
    04:00 +11°C° 0 mm 1 mps 746 mmHg 96%
    05:00 +11°C° 0 mm 1 mps 746 mmHg 96%
    06:00 +13°C° 0 mm 2 mps 746 mmHg 88%
    07:00 +15°C° 0 mm 2 mps 746 mmHg 81%
    08:00 +16°C° 0 mm 2 mps 746 mmHg 74%
    09:00 +17°C° 0 mm 2 mps 746 mmHg 68%
    10:00 +19°C° 0 mm 3 mps 746 mmHg 62%
    11:00 +20°C° 0 mm 3 mps 746 mmHg 56%
    12:00 +20°C° 0 mm 3 mps 746 mmHg 53%
    13:00 +21°C° 0 mm 3 mps 746 mmHg 50%
    14:00 +22°C° 0 mm 3 mps 745 mmHg 48%
    15:00 +21°C° 0 mm 2 mps 745 mmHg 52%
    16:00 +20°C° 0 mm 2 mps 745 mmHg 56%
    17:00 +21°C° 0 mm 1 mps 745 mmHg 60%
    18:00 +19°C° 0 mm 1 mps 745 mmHg 64%
    19:00 +18°C° 0 mm 1 mps 745 mmHg 69%
    20:00 +14°C° 0 mm 0 mps 745 mmHg 74%
    21:00 +15°C° 0 mm 1 mps 745 mmHg 76%
    22:00 +14°C° 0 mm 1 mps 745 mmHg 78%
    23:00 +13°C° 0 mm 1 mps 745 mmHg 80%

    Tomorrow, 24 May, Thursday

    Time Temperature Precipitation Wind Pressure Humidity
    00:00 +13°C° 0 mm 1 mps 745 mmHg 81%
    01:00 +13°C° 0 mm 1 mps 745 mmHg 83%
    02:00 +12°C° 0 mm 1 mps 745 mmHg 85%
    03:00 +13°C° 0 mm 1 mps 745 mmHg 84%
    04:00 +13°C° 0 mm 1 mps 745 mmHg 83%
    05:00 +14°C° 0 mm 1 mps 745 mmHg 82%
    06:00 +15°C° 0 mm 1 mps 746 mmHg 76%
    07:00 +18°C° 0 mm 1 mps 746 mmHg 69%
    08:00 +19°C° 0 mm 2 mps 746 mmHg 63%
    09:00 +20°C° 0.1 mm 2 mps 746 mmHg 58%
    10:00 +21°C° 0.1 mm 2 mps 746 mmHg 54%
    11:00 +23°C° 0.1 mm 2 mps 746 mmHg 49%
    12:00 +23°C° 0 mm 2 mps 746 mmHg 48%
    13:00 +24°C° 0 mm 2 mps 746 mmHg 47%
    14:00 +24°C° 0 mm 3 mps 746 mmHg 46%
    15:00 +22°C° 0 mm 3 mps 746 mmHg 49%
    16:00 +22°C° 0 mm 3 mps 746 mmHg 53%
    17:00 +21°C° 0 mm 3 mps 746 mmHg 57%
    18:00 +19°C° 0 mm 3 mps 746 mmHg 65%
    19:00 +18°C° 0 mm 3 mps 746 mmHg 74%
    20:00 +16°C° 0 mm 3 mps 747 mmHg 83%
    21:00 +14°C° 0 mm 3 mps 747 mmHg 83%
    22:00 +13°C° 0 mm 3 mps 748 mmHg 84%
    23:00 +11°C° 0 mm 3 mps 748 mmHg 84%

    Day after tomorrow, 25 May, Friday

    Time Temperature Precipitation Wind Pressure Humidity
    00:00 +10°C° 0 mm 3 mps 748 mmHg 81%
    01:00 +9°C° 0 mm 2 mps 749 mmHg 78%
    02:00 +8°C° 0 mm 2 mps 749 mmHg 75%
    03:00 +8°C° 0 mm 2 mps 749 mmHg 73%
    04:00 +8°C° 0 mm 2 mps 750 mmHg 70%
    05:00 +8°C° 0 mm 3 mps 750 mmHg 68%
    06:00 +10°C° 0 mm 3 mps 751 mmHg 60%
    07:00 +12°C° 0 mm 3 mps 751 mmHg 53%
    08:00 +14°C° 0 mm 3 mps 751 mmHg 45%
    09:00 +16°C° 0 mm 3 mps 752 mmHg 42%
    10:00 +17°C° 0 mm 3 mps 752 mmHg 40%
    11:00 +18°C° 0 mm 3 mps 752 mmHg 37%
    12:00 +18°C° 0 mm 3 mps 752 mmHg 36%
    13:00 +19°C° 0 mm 3 mps 752 mmHg 35%
    14:00 +19°C° 0 mm 3 mps 752 mmHg 35%
    15:00 +19°C° 0 mm 3 mps 752 mmHg 37%
    16:00 +19°C° 0 mm 2 mps 752 mmHg 39%
    17:00 +19°C° 0 mm 2 mps 752 mmHg 42%
    18:00 +17°C° 0 mm 2 mps 752 mmHg 49%
    19:00 +14°C° 0 mm 2 mps 752 mmHg 56%
    20:00 +12°C° 0 mm 1 mps 752 mmHg 64%
    21:00 +12°C° 0 mm 1 mps 753 mmHg 65%
    22:00 +11°C° 0 mm 1 mps 753 mmHg 66%
    23:00 +10°C° 0 mm 1 mps 753 mmHg 67%

    26 May, Saturday

    Time Temperature Precipitation Wind Pressure Humidity
    00:00 +10°C° 0 mm 1 mps 753 mmHg 67%
    01:00 +9°C° 0 mm 1 mps 754 mmHg 67%
    02:00 +9°C° 0 mm 1 mps 754 mmHg 67%
    03:00 +10°C° 0 mm 1 mps 754 mmHg 67%
    04:00 +10°C° 0 mm 1 mps 754 mmHg 67%
    05:00 +11°C° 0 mm 1 mps 755 mmHg 67%
    06:00 +13°C° 0 mm 2 mps 755 mmHg 61%
    07:00 +15°C° 0 mm 2 mps 755 mmHg 54%
    08:00 +17°C° 0 mm 2 mps 755 mmHg 48%
    09:00 +19°C° 0 mm 2 mps 755 mmHg 44%
    10:00 +20°C° 0 mm 2 mps 755 mmHg 40%
    11:00 +21°C° 0 mm 2 mps 755 mmHg 36%
    12:00 +23°C° 0 mm 2 mps 755 mmHg 37%
    13:00 +23°C° 0 mm 2 mps 754 mmHg 37%
    14:00 +24°C° 0 mm 3 mps 754 mmHg 37%
    15:00 +22°C° 0 mm 3 mps 753 mmHg 39%
    16:00 +22°C° 0 mm 3 mps 753 mmHg 42%
    17:00 +23°C° 0 mm 2 mps 753 mmHg 45%
    18:00 +20°C° 0 mm 2 mps 752 mmHg 53%
    19:00 +18°C° 0 mm 2 mps 752 mmHg 61%
    20:00 +16°C° 0 mm 2 mps 752 mmHg 69%
    21:00 +15°C° 0 mm 2 mps 752 mmHg 71%
    22:00 +14°C° 0 mm 2 mps 752 mmHg 73%
    23:00 +13°C° 0 mm 2 mps 752 mmHg 75%

    27 May, Sunday

    Time Temperature Precipitation Wind Pressure Humidity
    00:00 +12°C° 0 mm 3 mps 752 mmHg 75%
    01:00 +12°C° 0 mm 3 mps 752 mmHg 75%
    02:00 +12°C° 0 mm 3 mps 752 mmHg 75%
    03:00 +12°C° 0 mm 3 mps 752 mmHg 75%
    04:00 +12°C° 0 mm 3 mps 752 mmHg 75%
    05:00 +12°C° 0 mm 4 mps 752 mmHg 75%
    06:00 +14°C° 0 mm 4 mps 752 mmHg 69%
    07:00 +17°C° 0 mm 4 mps 751 mmHg 63%
    08:00 +19°C° 0 mm 4 mps 751 mmHg 58%
    09:00 +20°C° 0 mm 4 mps 751 mmHg 54%
    10:00 +21°C° 0 mm 4 mps 751 mmHg 51%
    11:00 +23°C° 0 mm 4 mps 750 mmHg 47%
    12:00 +23°C° 0 mm 4 mps 750 mmHg 48%
    13:00 +23°C° 0 mm 4 mps 750 mmHg 49%
    14:00 +24°C° 0 mm 3 mps 750 mmHg 50%
    15:00 +24°C° 0 mm 3 mps 749 mmHg 53%
    16:00 +22°C° 0 mm 3 mps 749 mmHg 56%
    17:00 +23°C° 0 mm 2 mps 749 mmHg 59%
    18:00 +20°C° 0 mm 2 mps 749 mmHg 62%
    19:00 +19°C° 0 mm 2 mps 749 mmHg 64%
    20:00 +17°C° 0 mm 2 mps 750 mmHg 67%
    21:00 +15°C° 0 mm 2 mps 750 mmHg 67%
    22:00 +14°C° 0 mm 2 mps 750 mmHg 67%
    23:00 +12°C° 0 mm 2 mps 751 mmHg 68%

    28 May, Monday

    Time Temperature Precipitation Wind Pressure Humidity
    00:00 +10°C° 0 mm 2 mps 751 mmHg 69%
    01:00 +10°C° 0 mm 1 mps 751 mmHg 71%
    02:00 +10°C° 0 mm 1 mps 752 mmHg 73%
    03:00 +10°C° 0 mm 1 mps 752 mmHg 70%
    04:00 +11°C° 0 mm 1 mps 752 mmHg 68%
    05:00 +11°C° 0 mm 1 mps 752 mmHg 66%
    06:00 +13°C° 0 mm 1 mps 752 mmHg 58%
    07:00 +16°C° 0 mm 1 mps 752 mmHg 50%
    08:00 +19°C° 0 mm 1 mps 752 mmHg 42%
    09:00 +20°C° 0 mm 1 mps 752 mmHg 40%
    10:00 +22°C° 0 mm 1 mps 752 mmHg 37%
    11:00 +23°C° 0 mm 1 mps 752 mmHg 35%
    12:00 +24°C° 0 mm 1 mps 752 mmHg 34%
    13:00 +24°C° 0 mm 1 mps 752 mmHg 33%
    14:00 +25°C° 0 mm 1 mps 751 mmHg 33%
    15:00 +24°C° 0 mm 1 mps 751 mmHg 35%
    16:00 +24°C° 0 mm 1 mps 751 mmHg 36%
    17:00 +24°C° 0 mm 1 mps 750 mmHg 38%
    18:00 +21°C° 0 mm 1 mps 750 mmHg 46%
    19:00 +19°C° 0 mm 1 mps 750 mmHg 53%
    20:00 +16°C° 0 mm 1 mps 750 mmHg 60%
    21:00 +15°C° 0 mm 1 mps 750 mmHg 62%
    22:00 +14°C° 0 mm 1 mps 750 mmHg 64%
    23:00 +13°C° 0 mm 1 mps 750 mmHg 66%
    Show more